Regional Weather Roundup
Issued by NWS

Home | Current Version | Previous Version | Graphics & Text | Print | Product List | Glossary On
Versions: 1 2 3 4 5 6 7 8 9 10 11 12 13 14 15 16 17 18 19 20 21 22 23 24 25 26 27 28 29 30 31 32 33 34 35 36 37 38 39 40 41 42 43 44 45 46 47 48 49 50
000
ASUS43 KDTX 272210
RWRMI
MICHIGAN HOURLY REGIONAL WEATHER ROUNDUP
NATIONAL WEATHER SERVICE DETROIT/PONTIAC MI
600 PM EDT FRI MAR 27 2015

NOTE: "FAIR" INDICATES FEW OR NO CLOUDS BELOW 12,000 FEET WITH NO
SIGNIFICANT WEATHER AND/OR OBSTRUCTION TO VISIBILITY.

MIZ047>049-052>055-059>063-066>070-074>076-081>083-272300-
SOUTHEAST LOWER MICHIGAN

CITY           SKY/WX    TMP DP  RH WIND       PRES   REMARKS
ADRIAN         PTSUNNY   28   4  35 N15       30.04S
ALMA           MOSUNNY   28   0  29 N10G17    30.07R
ANN ARBOR      LGT SNOW  25  11  55 N8        30.04R
BAD AXE        MOSUNNY   17   7  64 N17G24    30.09S
DETROIT CITY   CLOUDY    26  13  57 N12G22    30.05R
DETROIT        CLOUDY    26  11  52 NW10      30.05R
FLINT          CLOUDY    28   6  39 N13       30.05S
GROSSE ILE     CLOUDY    27  14  59 N7        30.03R
HILLSDALE        N/A     29   1  30 N13G23    30.01S
HOWELL         CLOUDY    24   7  47 N6        30.03S

CITY           SKY/WX    TMP DP  RH WIND       PRES   REMARKS
JACKSON        PTSUNNY   27   0  31 N8        30.03R
LAMBERTVILLE   CLOUDY    30  12  47 N12       30.05R
LANSING        MOSUNNY   26   1  34 N10       30.05S
LAPEER         NOT AVBL
MASON          MOSUNNY   26   0  32 N8G20     30.04S
MONROE         CLOUDY    25  18  74 N10       30.03R
MT. CLEMENS    FLURRIES  23  12  63 N16G23    30.03R
PONTIAC        PTSUNNY   23   2  40 N12       30.01S
PORT HOPE        N/A     18   9  68 N15G25    30.08S
PORT HURON     CLOUDY    21   9  58 N9        30.06R
TRI CITIES     PTSUNNY   25   9  50 NE16      30.08R
YPSILANTI      PTSUNNY   29   9  43 NW12      30.04S
$$
MIZ043>046-050>051-056>058-064>065-071>073-077>080-272300-
SOUTHWEST LOWER MICHIGAN

CITY           SKY/WX    TMP DP  RH WIND       PRES   REMARKS
BATTLE CREEK   SUNNY     30   0  27 N10       30.03F
BENTON HARBOR  PTSUNNY   23  11  60 N13G26    30.13S
BIG RAPIDS     SUNNY     24   0  34 N12G20    30.07S
COLDWATER      CLOUDY    30   0  27 NW12      30.02S
HOLLAND        SUNNY     26  11  52 NW17G24   30.11S
GRAND RAPIDS   MOSUNNY   30   4  33 NW10G20   30.06S
KALAMAZOO      PTSUNNY   30   8  39 NW13G22   30.05S
MARSHALL       MOSUNNY   28   0  30 N6        30.03S
MUSKEGON       MOSUNNY   27   4  37 NW14G23   30.11S
$$
MIZ016>042-272300-
NORTHERN LOWER MICHIGAN

CITY           SKY/WX    TMP DP  RH WIND       PRES   REMARKS
ALPENA         MOSUNNY   20   3  48 N13       30.12S
BEAVER ISLAND  SUNNY     20  -1  40 N10G17    30.18S
BELLAIRE       SUNNY     20   1  44 N3        30.17S
CADILLAC       SUNNY     19   0  43 NW9G17    30.08R
CHARLEVOIX     SUNNY     19   5  55 N12G17    30.19S
FRANKFORT      CLEAR     24   3  40 N13       30.18S
GAYLORD        SUNNY     17   0  47 NW8G17    30.07S
GRAYLING       SUNNY     21   0  40 NW10G17   30.09R
HARBOR SPRINGS SUNNY     21  -1  38 N7        30.15R
HOUGHTON LAKE  SUNNY     22   0  38 NW15      30.06S
MANISTEE       SUNNY     21   3  45 NW13G25   30.17S
OSCODA         PTSUNNY   22   2  42 N13       30.10R
PELLSTON       SUNNY     20   2  45 N14       30.15S
TRAVERSE CITY  MOSUNNY   19   4  51 N10       30.16S
$$
MIZ007>008-015-272300-
EASTERN UPPER MICHIGAN

CITY           SKY/WX    TMP DP  RH WIND       PRES   REMARKS
KINROSS        SUNNY     16   3  57 NW18      30.14R WCI  -1
MACKINAC ISLAN SUNNY     21  -1  39 N12       30.14F
NEWBERRY       SUNNY     13   1  59 N10G17    30.17S
S. S. MARIE    SUNNY     14   3  61 NW16G28   30.15R WCI  -2
$$
MIZ004>006-011>014-085-272300-
CENTRAL UPPER MICHIGAN

CITY           SKY/WX    TMP DP  RH WIND       PRES   REMARKS
MANISTIQUE     SUNNY     19   1  46 N13G18    30.19R
ESCANABA       SUNNY     25   1  36 N8        30.19S
MENOMINEE      SUNNY     25   9  50 SE9       30.18F
SAWYER-GWINN   SUNNY     18   1  49 NE10      30.17S
$$
MIZ001>003-009>011-084-272300-
WESTERN UPPER MICHIGAN

CITY           SKY/WX    TMP DP  RH WIND       PRES   REMARKS
IRON MOUNTAIN  SUNNY     28  -1  28 VRB3      30.13S
HOUGHTON       SUNNY     19   5  54 N6        30.19R
COPPER HARBOR    N/A     16   6  65 N3        30.23F
IRONWOOD       SUNNY     25  10  54 N6        30.14F
$$

ABBREVIATIONS USED IN REMARKS
   TC - TEMPERATURE IN CELSIUS
  WCI - WIND CHILL INDEX
   HX - HEAT INDEX
  VSB - VISIBILITY




USA.gov is the U.S. government's official web portal to all federal, state and local government web resources and services.